OE3UKW Weather Reports


time (UTC)temp
C
wind
direction
speed
KPH
gust
KPH
rain 1hr
cm
rain 24hr
cm
rain mn
cm
humidity
%
barometer
mb
20260507035110 14 244 19.3 33.8 0.00 0.00 0.00 55 1010.7
20260507034109 14 248 22.5 40.2 0.00 0.00 0.00 55 1010.7
20260507033109 14 244 20.9 41.8 0.00 0.00 0.00 55 1010.6
20260507032109 14 245 25.7 38.6 0.00 0.00 0.00 55 1010.7
20260507031109 14 277 24.1 41.8 0.00 0.00 0.00 55 1010.3
20260507030109 14 271 30.6 40.2 0.00 0.00 0.00 56 1010.3
20260507025109 14 241 24.1 29.0 0.00 0.00 0.00 57 1010.3
20260507024109 14 234 22.5 35.4 0.00 0.00 0.00 57 1010.3
20260507023109 14 257 17.7 30.6 0.00 0.00 0.00 58 1010.4
20260507022110 14 311 19.3 40.2 0.00 0.00 0.00 58 1010.1
20260507021109 14 254 22.5 37.0 0.00 0.00 0.00 58 1010.1
20260507020110 15 232 24.1 33.8 0.00 0.00 0.00 58 1010.2
20260507015109 15 244 25.7 32.2 0.00 0.00 0.00 57 1010.0
20260507014109 15 264 22.5 33.8 0.00 0.00 0.00 58 1009.9
20260507013124 15 244 16.1 27.4 0.00 0.00 0.00 57 1010.0
20260507012109 15 257 24.1 33.8 0.00 0.00 0.00 57 1010.0
20260507011109 15 232 24.1 35.4 0.00 0.00 0.00 57 1010.0
20260507010109 15 248 25.7 41.8 0.00 0.00 0.00 57 1009.8
20260507005110 15 360 29.0 37.0 0.00 0.00 0.00 57 1009.4
20260507004110 15 242 20.9 32.2 0.00 0.00 0.00 58 1009.4
20260507003110 15 240 20.9 30.6 0.00 0.00 0.00 58 1009.4
20260507002110 15 247 24.1 37.0 0.00 0.00 0.00 58 1009.3
20260507001110 16 263 27.4 40.2 0.00 0.00 0.00 58 1009.2
20260507000110 16 252 19.3 41.8 0.00 0.00 0.00 58 1009.2
20260506235110 16 259 24.1 33.8 0.00 0.00 0.00 59 1009.2
20260506234110 16 246 24.1 33.8 0.00 0.00 0.00 58 1009.3
20260506233110 15 244 29.0 35.4 0.00 0.00 0.00 58 1009.2
20260506232110 15 229 17.7 30.6 0.00 0.00 0.00 58 1008.9
20260506231110 15 225 14.5 17.7 0.00 0.00 0.00 58 1008.9
20260506230110 15 218 3.2 8.0 0.00 0.00 0.00 58 1008.8
20260506225110 15 220 6.4 11.3 0.00 0.00 0.00 58 1008.7
20260506224110 15 204 11.3 14.5 0.00 0.00 0.00 57 1008.6
20260506223110 16 195 8.0 14.5 0.00 0.00 0.00 57 1008.4
20260506222110 16 180 11.3 14.5 0.00 0.00 0.00 56 1007.9
20260506221110 16 171 12.9 17.7 0.00 0.00 0.00 55 1007.9
20260506220110 16 184 14.5 24.1 0.00 0.00 0.00 55 1007.9
20260506215113 17 173 16.1 19.3 0.00 0.00 0.00 54 1007.8
20260506214113 17 174 19.3 30.6 0.00 0.00 0.00 54 1007.6
20260506213113 17 153 20.9 33.8 0.00 0.00 0.00 53 1007.5
20260506212113 17 184 17.7 24.1 0.00 0.00 0.00 53 1007.3
20260506211113 17 163 16.1 32.2 0.00 0.00 0.00 53 1007.1
20260506210113 17 166 19.3 37.0 0.00 0.00 0.00 52 1007.2
20260506205113 17 163 17.7 32.2 0.00 0.00 0.00 52 1007.2
20260506204113 17 166 19.3 37.0 0.00 0.00 0.00 52 1007.0
20260506203113 17 173 25.7 38.6 0.00 0.00 0.00 51 1007.0
20260506202113 18 169 17.7 29.0 0.00 0.00 0.00 50 1007.0
20260506201113 18 155 17.7 25.7 0.00 0.00 0.00 50 1006.9
20260506200113 18 165 16.1 29.0 0.00 0.00 0.00 49 1006.9
20260506195113 18 169 20.9 33.8 0.00 0.00 0.00 48 1006.7
20260506194113 18 167 22.5 37.0 0.00 0.00 0.00 49 1006.4
20260506193113 18 171 17.7 30.6 0.00 0.00 0.00 49 1006.3
20260506192113 18 161 12.9 22.5 0.00 0.00 0.00 49 1006.3
20260506191113 18 159 9.7 22.5 0.00 0.00 0.00 48 1006.3
20260506190112 19 172 22.5 40.2 0.00 0.00 0.00 48 1006.1
20260506185112 19 161 20.9 37.0 0.00 0.00 0.00 47 1006.0
20260506184112 20 169 24.1 38.6 0.00 0.00 0.00 46 1005.9
20260506183113 20 180 24.1 33.8 0.00 0.00 0.00 46 1005.6
20260506182112 20 173 24.1 32.2 0.00 0.00 0.00 46 1005.5
20260506181112 20 167 11.3 27.4 0.00 0.00 0.00 46 1005.6
20260506180112 20 147 22.5 32.2 0.00 0.00 0.00 45 1005.3
20260506175113 20 173 16.1 32.2 0.00 0.00 0.00 45 1005.3
20260506174112 21 178 19.3 32.2 0.00 0.00 0.00 44 1005.4
20260506173112 21 159 19.3 30.6 0.00 0.00 0.00 43 1005.3
20260506172112 21 170 29.0 40.2 0.00 0.00 0.00 42 1005.2
20260506171112 21 182 20.9 49.9 0.00 0.00 0.00 40 1005.3
20260506170112 22 180 19.3 30.6 0.00 0.00 0.00 39 1005.4
20260506165112 22 172 20.9 37.0 0.00 0.00 0.00 38 1005.5
20260506164112 22 156 19.3 35.4 0.00 0.00 0.00 37 1005.4
20260506163112 22 177 30.6 48.3 0.00 0.00 0.00 36 1005.5
20260506162112 23 164 33.8 53.1 0.00 0.00 0.00 36 1005.5
20260506161112 23 178 22.5 56.3 0.00 0.00 0.00 36 1005.7
20260506160112 23 177 37.0 48.3 0.00 0.00 0.00 35 1005.7
20260506155112 23 191 30.6 48.3 0.00 0.00 0.00 35 1005.8
20260506154112 23 177 32.2 40.2 0.00 0.00 0.00 35 1005.8
20260506153112 23 169 24.1 35.4 0.00 0.00 0.00 35 1005.9
20260506152112 23 181 20.9 37.0 0.00 0.00 0.00 34 1005.9
20260506151112 24 138 27.4 40.2 0.00 0.00 0.00 33 1005.9
20260506150112 24 182 24.1 41.8 0.00 0.00 0.00 32 1005.9
20260506145112 24 167 25.7 45.1 0.00 0.00 0.00 33 1005.9
20260506144111 24 140 29.0 49.9 0.00 0.00 0.00 33 1006.2
20260506143111 25 161 29.0 41.8 0.00 0.00 0.00 32 1006.2
20260506142112 25 136 32.2 45.1 0.00 0.00 0.00 32 1006.2
20260506141112 25 147 24.1 46.7 0.00 0.00 0.00 32 1006.3
20260506140112 25 129 25.7 46.7 0.00 0.00 0.00 31 1006.5
20260506135112 25 159 29.0 41.8 0.00 0.00 0.00 31 1006.7
20260506134112 23 152 29.0 41.8 0.00 0.00 0.00 33 1006.8
20260506133111 23 151 24.1 37.0 0.00 0.00 0.00 32 1006.8
20260506132111 23 160 20.9 37.0 0.00 0.00 0.00 31 1006.8
20260506131111 24 126 24.1 32.2 0.00 0.00 0.00 32 1007.0
20260506130111 24 157 27.4 46.7 0.00 0.00 0.00 31 1007.0
20260506125111 24 140 22.5 45.1 0.00 0.00 0.00 31 1007.2
20260506124112 24 171 22.5 37.0 0.00 0.00 0.00 31 1007.5
20260506123111 25 182 27.4 38.6 0.00 0.00 0.00 31 1007.7
20260506122111 25 132 29.0 43.5 0.00 0.00 0.00 32 1007.8
20260506121111 25 155 24.1 48.3 0.00 0.00 0.00 31 1007.8
20260506120111 24 167 25.7 38.6 0.00 0.00 0.00 34 1008.1
20260506115111 24 153 29.0 46.7 0.00 0.00 0.00 35 1008.0
20260506114111 23 175 24.1 40.2 0.00 0.00 0.00 34 1008.1
20260506113111 25 167 19.3 38.6 0.00 0.00 0.00 34 1008.2
20260506112111 25 160 20.9 37.0 0.00 0.00 0.00 36 1008.3
20260506111111 24 115 17.7 37.0 0.00 0.00 0.00 36 1008.5
20260506110111 24 184 22.5 38.6 0.00 0.00 0.00 36 1008.5
20260506105111 24 138 29.0 41.8 0.00 0.00 0.00 37 1008.5
20260506104111 24 171 19.3 32.2 0.00 0.00 0.00 37 1008.6
20260506103111 24 136 20.9 35.4 0.00 0.00 0.00 37 1008.8
20260506102111 24 140 25.7 35.4 0.00 0.00 0.00 36 1009.0
20260506101111 25 360 20.9 32.2 0.00 0.00 0.00 39 1009.0
20260506100111 24 153 16.1 32.2 0.00 0.00 0.00 38 1009.1
20260506095111 24 140 16.1 25.7 0.00 0.00 0.00 38 1009.1
20260506094111 23 149 19.3 24.1 0.00 0.00 0.00 38 1009.1
20260506093111 24 125 16.1 27.4 0.00 0.00 0.00 38 1009.3
20260506092111 24 130 11.3 17.7 0.00 0.00 0.00 38 1009.3
20260506091111 23 123 14.5 20.9 0.00 0.00 0.00 38 1009.3
20260506090110 23 134 14.5 19.3 0.00 0.00 0.00 36 1009.4
20260506085110 23 163 9.7 20.9 0.00 0.00 0.00 37 1009.4
20260506084111 23 130 3.2 19.3 0.00 0.00 0.00 36 1009.5
20260506083111 23 172 6.4 14.5 0.00 0.00 0.00 38 1009.6
20260506082110 22 132 3.2 11.3 0.00 0.00 0.00 38 1009.5
20260506081111 22 179 4.8 9.7 0.00 0.00 0.00 39 1009.7
20260506080111 22 190 6.4 14.5 0.00 0.00 0.00 39 1009.8
20260506073110 21 257 1.6 11.3 0.00 0.00 0.00 45 1009.7
20260506072110 20 255 8.0 14.5 0.00 0.00 0.00 46 1009.9
20260506071110 20 233 8.0 14.5 0.00 0.00 0.00 45 1009.9
20260506070110 21 226 11.3 17.7 0.00 0.00 0.00 45 1009.9
20260506062110 18 256 16.1 22.5 0.00 0.00 0.00 51 1009.9
20260506061110 18 232 11.3 24.1 0.00 0.00 0.00 52 1009.7
20260506060110 17 224 17.7 24.1 0.00 0.00 0.00 54 1010.0
20260506051110 13 120 3.2 6.4 0.00 0.00 0.00 67 1009.8
20260506050110 12 129 3.2 9.7 0.00 0.00 0.00 67 1009.7
20260506045110 12 136 4.8 6.4 0.00 0.00 0.00 67 1009.5
20260506044110 12 142 3.2 4.8 0.00 0.00 0.00 67 1009.5
20260506043110 12 142 1.6 4.8 0.00 0.00 0.00 68 1009.4
20260506042110 11 144 6.4 9.7 0.00 0.00 0.00 67 1009.3
20260506041110 11 124 0.0 3.2 0.00 0.00 0.00 67 1009.2
20260506040110 11 124 4.8 8.0 0.00 0.00 0.00 67 1009.0